QPF
0.00 0.00 0.00 0.00 0.00 0.00 0.00 0.00 0.00 0.00 0.00 0.00 0.00 0.00 0.01 0.01 0.02 0.03 0.02 0.02 0.03 0.04 0.04 0.05 0.07 0.08 0.09 0.08 0.09 0.12 0.12 0.13 0.11 0.09 0.09 0.08 0.07 0.07 0.08 0.09 0.08 0.07 0.05 0.04
0.00 0.00 0.00 0.00 0.00 0.00 0.00 0.00 0.01 0.01 0.01 0.00 0.00 0.01 0.01 0.02 0.03 0.03 0.03 0.03 0.03 0.03 0.04 0.04 0.06 0.07 0.07 0.07 0.07 0.11 0.10 0.11 0.13 0.10 0.08 0.07 0.07 0.08 0.07 0.08 0.08 0.07 0.05 0.04
0.00 0.00 0.00 0.00 0.00 0.01 0.01 0.01 0.01 0.01 0.01 0.00 0.00 0.01 0.01 0.02 0.03 0.02 0.03 0.03 0.03 0.03 0.03 0.03 0.04 0.05 0.06 0.05 0.05 0.07 0.08 0.08 0.11 0.11 0.08 0.05 0.05 0.05 0.06 0.06 0.07 0.06 0.05 0.04
0.00 0.00 0.00 0.00 0.00 0.01 0.01 0.01 0.01 0.01 0.01 0.01 0.00 0.01 0.00 0.02 0.02 0.02 0.03 0.03 0.03 0.03 0.04 0.03 0.04 0.05 0.05 0.04 0.03 0.05 0.06 0.06 0.06 0.09 0.08 0.04 0.03 0.03 0.04 0.03 0.04 0.04 0.04 0.03
0.00 0.00 0.00 0.00 0.00 0.01 0.00 0.01 0.01 0.01 0.01 0.01 0.01 0.00 0.00 0.00 0.01 0.01 0.01 0.02 0.03 0.04 0.06 0.04 0.03 0.04 0.04 0.02 0.02 0.03 0.04 0.04 0.05 0.06 0.06 0.05 0.03 0.03 0.03 0.03 0.03 0.04 0.03 0.03
0.00 0.00 0.00 0.00 0.00 0.01 0.00 0.01 0.00 0.01 0.01 0.01 0.00 0.00 0.00 0.00 0.00 0.00 0.01 0.02 0.03 0.05 0.05 0.04 0.04 0.04 0.03 0.02 0.02 0.03 0.03 0.04 0.05 0.05 0.05 0.04 0.03 0.03 0.02 0.02 0.02 0.03 0.04 0.02
0.00 0.00 0.00 0.00 0.00 0.00 0.00 0.01 0.01 0.01 0.01 0.00 0.00 0.00 0.00 0.00 0.00 0.00 0.01 0.01 0.03 0.04 0.04 0.03 0.03 0.03 0.02 0.01 0.01 0.02 0.02 0.04 0.04 0.05 0.05 0.03 0.03 0.03 0.02 0.02 0.02 0.02 0.02 0.02
0.00 0.00 0.00 0.00 0.00 0.00 0.00 0.01 0.01 0.01 0.00 0.00 0.00 0.00 0.00 0.00 0.00 0.00 0.00 0.00 0.02 0.03 0.03 0.03 0.03 0.03 0.03 0.02 0.01 0.02 0.02 0.03 0.03 0.04 0.06 0.04 0.03 0.03 0.02 0.01 0.02 0.01 0.01 0.01
0.00 0.00 0.00 0.00 0.00 0.00 0.00 0.01 0.01 0.01 0.00 0.00 0.00 0.00 0.00 0.00 0.00 0.00 0.00 0.00 0.01 0.02 0.02 0.02 0.02 0.03 0.02 0.02 0.02 0.01 0.01 0.02 0.02 0.03 0.05 0.04 0.03 0.02 0.01 0.01 0.01 0.01 0.00 0.00
0.00 0.00 0.00 0.00 0.00 0.00 0.01 0.01 0.01 0.01 0.01 0.00 0.01 0.00 0.00 0.00 0.00 0.00 0.00 0.00 0.01 0.02 0.02 0.02 0.02 0.02 0.02 0.02 0.02 0.01 0.01 0.01 0.01 0.02 0.03 0.03 0.03 0.02 0.01 0.01 0.00 0.00 0.00 0.00
0.00 0.00 0.00 0.00 0.00 0.00 0.01 0.01 0.01 0.01 0.01 0.01 0.01 0.00 0.00 0.00 0.00 0.00 0.00 0.01 0.01 0.01 0.01 0.02 0.02 0.01 0.01 0.01 0.01 0.01 0.00 0.00 0.01 0.01 0.01 0.01 0.01 0.01 0.01 0.01 0.01 0.01 0.01 0.00
0.00 0.00 0.00 0.00 0.00 0.00 0.01 0.01 0.01 0.01 0.01 0.01 0.00 0.00 0.00 0.00 0.00 0.00 0.00 0.00 0.01 0.01 0.01 0.01 0.01 0.01 0.01 0.00 0.00 0.00 0.00 0.00 0.00 0.01 0.01 0.01 0.00 0.00 0.00 0.00 0.00 0.00 0.00 0.00
0.01 0.01 0.01 0.00 0.00 0.00 0.00 0.01 0.01 0.01 0.01 0.01 0.00 0.00 0.00 0.00 0.00 0.00 0.00 0.00 0.01 0.01 0.01 0.01 0.01 0.01 0.00 0.00 0.00 0.00 0.00 0.00 0.00 0.00 0.01 0.00 0.00 0.00 0.00 0.00 0.00 0.00 0.00 0.00
0.01 0.02 0.01 0.01 0.01 0.01 0.01 0.01 0.01 0.01 0.00 0.01 0.00 0.00 0.00 0.00 0.01 0.00 0.00 0.00 0.01 0.01 0.01 0.01 0.01 0.01 0.00 0.01 0.00 0.00 0.00 0.00 0.00 0.00 0.00 0.00 0.00 0.00 0.00 0.00 0.00 0.00 0.00 0.00
0.01 0.01 0.02 0.02 0.02 0.01 0.01 0.01 0.01 0.01 0.00 0.00 0.00 0.00 0.00 0.00 0.00 0.01 0.01 0.00 0.00 0.01 0.01 0.01 0.01 0.01 0.01 0.01 0.01 0.00 0.00 0.00 0.00 0.00 0.00 0.00 0.00 0.00 0.00 0.00 0.00 0.00 0.00 0.00
0.01 0.01 0.01 0.02 0.02 0.02 0.01 0.01 0.01 0.01 0.01 0.00 0.00 0.00 0.00 0.00 0.00 0.01 0.00 0.00 0.00 0.00 0.00 0.00 0.01 0.01 0.01 0.02 0.03 0.01 0.00 0.00 0.00 0.00 0.00 0.00 0.00 0.00 0.00 0.00 0.00 0.00 0.00 0.00
0.01 0.02 0.02 0.01 0.02 0.02 0.01 0.01 0.01 0.01 0.01 0.01 0.01 0.01 0.00 0.01 0.01 0.01 0.01 0.00 0.00 0.01 0.00 0.00 0.00 0.00 0.01 0.01 0.02 0.01 0.01 0.01 0.00 0.01 0.01 0.00 0.00 0.00 0.00 0.00 0.00 0.00 0.00 0.00
0.02 0.02 0.02 0.02 0.02 0.03 0.03 0.02 0.01 0.01 0.01 0.01 0.01 0.01 0.01 0.01 0.01 0.01 0.01 0.00 0.00 0.00 0.00 0.00 0.00 0.00 0.00 0.01 0.01 0.02 0.01 0.01 0.02 0.02 0.01 0.01 0.01 0.01 0.00 0.00 0.00 0.00 0.00 0.00
0.01 0.03 0.04 0.03 0.02 0.02 0.03 0.03 0.03 0.02 0.02 0.02 0.02 0.02 0.02 0.02 0.02 0.02 0.01 0.01 0.01 0.01 0.00 0.00 0.00 0.00 0.00 0.00 0.01 0.02 0.01 0.01 0.01 0.02 0.01 0.01 0.01 0.01 0.01 0.01 0.00 0.01 0.01 0.00
0.02 0.03 0.04 0.02 0.03 0.03 0.03 0.04 0.03 0.03 0.03 0.02 0.03 0.02 0.02 0.02 0.02 0.02 0.02 0.01 0.01 0.01 0.01 0.01 0.01 0.01 0.01 0.01 0.01 0.01 0.01 0.01 0.00 0.01 0.01 0.01 0.01 0.01 0.01 0.01 0.01 0.01 0.01 0.01
0.02 0.03 0.02 0.02 0.02 0.03 0.03 0.03 0.04 0.05 0.04 0.03 0.02 0.02 0.03 0.03 0.03 0.03 0.03 0.02 0.02 0.02 0.02 0.02 0.01 0.01 0.02 0.02 0.02 0.01 0.00 0.00 0.00 0.00 0.01 0.01 0.02 0.02 0.02 0.02 0.02 0.02 0.01 0.01
0.04 0.04 0.03 0.03 0.03 0.03 0.03 0.03 0.03 0.03 0.03 0.03 0.02 0.03 0.03 0.03 0.03 0.03 0.03 0.02 0.02 0.02 0.02 0.05 0.04 0.02 0.02 0.02 0.02 0.02 0.01 0.01 0.01 0.00 0.01 0.01 0.03 0.02 0.02 0.02 0.02 0.01 0.01 0.01
0.03 0.03 0.03 0.04 0.04 0.03 0.02 0.03 0.03 0.03 0.02 0.02 0.02 0.03 0.03 0.04 0.04 0.04 0.03 0.03 0.02 0.02 0.02 0.05 0.05 0.03 0.02 0.02 0.01 0.01 0.01 0.01 0.01 0.01 0.01 0.02 0.02 0.02 0.01 0.02 0.02 0.02 0.02 0.02
0.04 0.06 0.06 0.06 0.07 0.04 0.03 0.03 0.04 0.03 0.03 0.03 0.03 0.02 0.03 0.04 0.05 0.05 0.04 0.03 0.03 0.02 0.03 0.04 0.04 0.02 0.03 0.03 0.02 0.02 0.03 0.04 0.04 0.03 0.03 0.03 0.02 0.02 0.02 0.02 0.02 0.02 0.03 0.03
0.06 0.06 0.07 0.07 0.07 0.04 0.04 0.04 0.04 0.03 0.02 0.03 0.02 0.02 0.03 0.04 0.05 0.05 0.04 0.03 0.03 0.04 0.04 0.04 0.04 0.03 0.04 0.03 0.03 0.05 0.06 0.07 0.06 0.05 0.04 0.04 0.04 0.03 0.03 0.04 0.04 0.04 0.04 0.03
0.07 0.06 0.06 0.06 0.06 0.06 0.05 0.04 0.04 0.02 0.02 0.02 0.03 0.04 0.04 0.03 0.04 0.05 0.04 0.03 0.03 0.06 0.10 0.06 0.05 0.06 0.06 0.06 0.06 0.07 0.08 0.09 0.08 0.06 0.05 0.05 0.05 0.05 0.05 0.05 0.04 0.04 0.03 0.02
MSLP
1009.10 1009.81 1010.35 1010.73 1010.99 1011.18 1011.33 1011.47 1011.61 1011.73 1011.80 1011.82 1011.77 1011.67 1011.56 1011.47 1011.47 1011.58 1011.82 1012.17 1012.59 1013.02 1013.41 1013.71 1013.89 1013.96 1013.95 1013.92 1013.92 1014.00 1014.20 1014.52 1014.95 1015.44 1015.95 1016.42 1016.84 1017.17 1017.43 1017.63 1017.80 1017.99 1018.19 1018.43
1009.49 1010.05 1010.43 1010.69 1010.88 1011.05 1011.26 1011.50 1011.77 1012.01 1012.18 1012.24 1012.18 1012.01 1011.79 1011.59 1011.47 1011.50 1011.69 1012.04 1012.49 1012.99 1013.44 1013.78 1013.99 1014.05 1014.02 1013.95 1013.91 1013.97 1014.18 1014.54 1015.02 1015.59 1016.17 1016.70 1017.15 1017.48 1017.71 1017.87 1018.00 1018.14 1018.32 1018.56
1009.68 1010.07 1010.30 1010.44 1010.58 1010.78 1011.08 1011.47 1011.90 1012.30 1012.59 1012.71 1012.64 1012.40 1012.06 1011.71 1011.44 1011.35 1011.46 1011.78 1012.24 1012.78 1013.29 1013.70 1013.95 1014.05 1014.02 1013.94 1013.90 1013.95 1014.17 1014.55 1015.09 1015.71 1016.35 1016.93 1017.41 1017.76 1017.98 1018.12 1018.22 1018.34 1018.50 1018.74
1009.67 1009.89 1009.98 1010.03 1010.16 1010.42 1010.85 1011.42 1012.05 1012.62 1013.05 1013.23 1013.15 1012.83 1012.35 1011.83 1011.39 1011.14 1011.13 1011.37 1011.83 1012.39 1012.97 1013.45 1013.78 1013.94 1013.96 1013.91 1013.87 1013.93 1014.16 1014.56 1015.12 1015.78 1016.46 1017.08 1017.59 1017.97 1018.20 1018.34 1018.44 1018.55 1018.71 1018.95
1009.48 1009.55 1009.53 1009.54 1009.69 1010.05 1010.64 1011.41 1012.25 1013.01 1013.56 1013.81 1013.71 1013.29 1012.66 1011.94 1011.30 1010.86 1010.71 1010.86 1011.27 1011.86 1012.49 1013.06 1013.49 1013.74 1013.83 1013.83 1013.83 1013.91 1014.14 1014.55 1015.11 1015.78 1016.48 1017.13 1017.68 1018.08 1018.34 1018.50 1018.61 1018.73 1018.91 1019.15
1009.18 1009.13 1009.04 1009.04 1009.26 1009.75 1010.51 1011.48 1012.51 1013.44 1014.10 1014.39 1014.26 1013.73 1012.93 1012.01 1011.16 1010.53 1010.22 1010.26 1010.63 1011.22 1011.92 1012.58 1013.11 1013.47 1013.66 1013.74 1013.78 1013.88 1014.11 1014.51 1015.06 1015.71 1016.41 1017.07 1017.64 1018.08 1018.38 1018.57 1018.72 1018.86 1019.05 1019.30
1008.81 1008.68 1008.57 1008.60 1008.91 1009.54 1010.48 1011.63 1012.82 1013.88 1014.62 1014.91 1014.73 1014.09 1013.13 1012.02 1010.97 1010.15 1009.69 1009.63 1009.95 1010.54 1011.29 1012.04 1012.69 1013.17 1013.47 1013.63 1013.72 1013.84 1014.07 1014.44 1014.95 1015.58 1016.25 1016.91 1017.49 1017.95 1018.29 1018.53 1018.72 1018.89 1019.11 1019.37
1008.40 1008.25 1008.16 1008.27 1008.69 1009.45 1010.53 1011.81 1013.12 1014.25 1015.01 1015.29 1015.03 1014.29 1013.18 1011.91 1010.70 1009.73 1009.15 1009.00 1009.27 1009.87 1010.66 1011.50 1012.25 1012.84 1013.25 1013.49 1013.65 1013.79 1014.01 1014.35 1014.81 1015.39 1016.03 1016.66 1017.24 1017.72 1018.09 1018.38 1018.61 1018.83 1019.06 1019.34
1008.02 1007.89 1007.86 1008.07 1008.59 1009.46 1010.63 1011.99 1013.33 1014.46 1015.20 1015.43 1015.09 1014.25 1013.04 1011.66 1010.34 1009.27 1008.60 1008.39 1008.63 1009.23 1010.06 1010.96 1011.80 1012.49 1013.00 1013.33 1013.54 1013.72 1013.93 1014.24 1014.66 1015.18 1015.76 1016.36 1016.92 1017.41 1017.81 1018.14 1018.41 1018.66 1018.93 1019.22
1007.66 1007.61 1007.67 1007.98 1008.59 1009.52 1010.73 1012.07 1013.38 1014.44 1015.11 1015.25 1014.83 1013.93 1012.66 1011.23 1009.87 1008.77 1008.06 1007.82 1008.04 1008.64 1009.49 1010.43 1011.33 1012.10 1012.69 1013.10 1013.38 1013.59 1013.82 1014.11 1014.49 1014.96 1015.50 1016.05 1016.59 1017.07 1017.49 1017.84 1018.15 1018.44 1018.73 1019.04
1007.36 1007.41 1007.59 1007.99 1008.65 1009.60 1010.76 1012.01 1013.20 1014.13 1014.67 1014.70 1014.22 1013.29 1012.02 1010.62 1009.29 1008.22 1007.53 1007.30 1007.51 1008.09 1008.93 1009.88 1010.81 1011.63 1012.28 1012.76 1013.11 1013.38 1013.64 1013.94 1014.30 1014.75 1015.24 1015.77 1016.28 1016.75 1017.17 1017.54 1017.88 1018.19 1018.51 1018.83
1007.14 1007.32 1007.61 1008.08 1008.76 1009.65 1010.70 1011.79 1012.78 1013.53 1013.90 1013.83 1013.30 1012.37 1011.17 1009.85 1008.62 1007.64 1007.01 1006.81 1007.01 1007.57 1008.37 1009.29 1010.20 1011.03 1011.72 1012.26 1012.68 1013.03 1013.35 1013.69 1014.08 1014.52 1015.01 1015.51 1016.00 1016.46 1016.89 1017.27 1017.62 1017.96 1018.30 1018.64
1007.03 1007.34 1007.72 1008.23 1008.88 1009.66 1010.54 1011.40 1012.15 1012.67 1012.87 1012.69 1012.13 1011.25 1010.15 1008.99 1007.91 1007.06 1006.52 1006.36 1006.55 1007.06 1007.78 1008.62 1009.48 1010.29 1010.99 1011.58 1012.08 1012.51 1012.92 1013.34 1013.79 1014.26 1014.76 1015.26 1015.75 1016.21 1016.63 1017.02 1017.39 1017.75 1018.10 1018.47
1007.05 1007.48 1007.93 1008.44 1009.02 1009.65 1010.30 1010.90 1011.38 1011.66 1011.68 1011.40 1010.83 1010.03 1009.09 1008.11 1007.22 1006.52 1006.09 1005.96 1006.13 1006.55 1007.17 1007.89 1008.65 1009.39 1010.08 1010.70 1011.27 1011.80 1012.32 1012.84 1013.38 1013.92 1014.47 1014.99 1015.49 1015.95 1016.38 1016.78 1017.16 1017.53 1017.91 1018.29
1007.23 1007.74 1008.23 1008.70 1009.17 1009.61 1010.02 1010.35 1010.55 1010.59 1010.44 1010.08 1009.54 1008.84 1008.07 1007.30 1006.61 1006.07 1005.75 1005.64 1005.76 1006.07 1006.54 1007.11 1007.73 1008.37 1009.01 1009.65 1010.27 1010.90 1011.54 1012.19 1012.83 1013.47 1014.08 1014.65 1015.18 1015.66 1016.09 1016.50 1016.90 1017.29 1017.69 1018.09
1007.57 1008.12 1008.60 1009.01 1009.34 1009.58 1009.74 1009.80 1009.75 1009.57 1009.28 1008.87 1008.37 1007.79 1007.20 1006.63 1006.14 1005.75 1005.51 1005.41 1005.45 1005.63 1005.92 1006.31 1006.76 1007.28 1007.85 1008.47 1009.14 1009.85 1010.60 1011.37 1012.13 1012.87 1013.56 1014.19 1014.76 1015.27 1015.73 1016.16 1016.57 1016.99 1017.40 1017.82
1008.05 1008.59 1009.02 1009.33 1009.51 1009.56 1009.49 1009.31 1009.04 1008.69 1008.29 1007.86 1007.41 1006.96 1006.53 1006.15 1005.82 1005.56 1005.37 1005.25 1005.21 1005.23 1005.34 1005.52 1005.80 1006.17 1006.64 1007.23 1007.92 1008.69 1009.54 1010.41 1011.28 1012.12 1012.90 1013.60 1014.22 1014.76 1015.25 1015.71 1016.15 1016.58 1017.02 1017.45
1008.60 1009.09 1009.44 1009.64 1009.67 1009.54 1009.27 1008.90 1008.46 1007.99 1007.53 1007.09 1006.70 1006.37 1006.09 1005.86 1005.66 1005.48 1005.31 1005.15 1005.00 1004.87 1004.79 1004.78 1004.87 1005.10 1005.47 1006.00 1006.68 1007.50 1008.41 1009.36 1010.32 1011.25 1012.10 1012.86 1013.53 1014.13 1014.65 1015.15 1015.61 1016.07 1016.53 1016.98
1009.16 1009.55 1009.79 1009.86 1009.75 1009.48 1009.07 1008.56 1008.02 1007.48 1006.99 1006.57 1006.24 1005.99 1005.82 1005.69 1005.57 1005.44 1005.26 1005.04 1004.79 1004.51 1004.26 1004.07 1004.01 1004.10 1004.37 1004.84 1005.50 1006.33 1007.27 1008.28 1009.30 1010.29 1011.20 1012.02 1012.74 1013.38 1013.95 1014.48 1014.99 1015.48 1015.96 1016.42
1009.63 1009.89 1010.01 1009.95 1009.73 1009.34 1008.84 1008.27 1007.67 1007.11 1006.62 1006.23 1005.95 1005.76 1005.65 1005.57 1005.48 1005.34 1005.13 1004.83 1004.47 1004.08 1003.69 1003.37 1003.18 1003.17 1003.36 1003.78 1004.41 1005.23 1006.19 1007.22 1008.27 1009.29 1010.25 1011.11 1011.88 1012.57 1013.19 1013.76 1014.31 1014.83 1015.34 1015.82
1009.92 1010.04 1010.02 1009.85 1009.54 1009.09 1008.55 1007.96 1007.36 1006.82 1006.35 1005.99 1005.74 1005.57 1005.47 1005.38 1005.27 1005.08 1004.81 1004.45 1004.00 1003.51 1003.03 1002.63 1002.36 1002.29 1002.43 1002.81 1003.42 1004.22 1005.18 1006.21 1007.27 1008.32 1009.30 1010.19 1011.01 1011.74 1012.40 1013.02 1013.61 1014.17 1014.71 1015.20
1009.98 1009.94 1009.79 1009.53 1009.16 1008.69 1008.16 1007.60 1007.04 1006.54 1006.11 1005.77 1005.52 1005.34 1005.19 1005.05 1004.86 1004.60 1004.25 1003.81 1003.29 1002.75 1002.23 1001.80 1001.52 1001.43 1001.56 1001.93 1002.53 1003.32 1004.26 1005.29 1006.35 1007.40 1008.39 1009.32 1010.16 1010.93 1011.64 1012.31 1012.94 1013.53 1014.09 1014.60
1009.76 1009.57 1009.31 1008.98 1008.58 1008.13 1007.64 1007.14 1006.66 1006.21 1005.82 1005.49 1005.21 1004.97 1004.75 1004.50 1004.21 1003.84 1003.41 1002.90 1002.35 1001.79 1001.28 1000.87 1000.62 1000.56 1000.73 1001.12 1001.73 1002.52 1003.45 1004.47 1005.52 1006.56 1007.57 1008.51 1009.39 1010.19 1010.94 1011.65 1012.30 1012.92 1013.49 1014.01
1009.27 1008.95 1008.60 1008.22 1007.82 1007.40 1006.98 1006.57 1006.17 1005.79 1005.43 1005.09 1004.77 1004.45 1004.11 1003.74 1003.32 1002.84 1002.32 1001.76 1001.19 1000.66 1000.20 999.86 999.69 999.71 999.94 1000.38 1001.02 1001.82 1002.75 1003.75 1004.79 1005.83 1006.84 1007.80 1008.70 1009.53 1010.32 1011.04 1011.72 1012.35 1012.92 1013.43
1008.55 1008.12 1007.70 1007.29 1006.90 1006.54 1006.21 1005.88 1005.57 1005.25 1004.92 1004.57 1004.19 1003.77 1003.31 1002.81 1002.26 1001.68 1001.09 1000.50 999.95 999.46 999.09 998.85 998.79 998.91 999.23 999.73 1000.41 1001.23 1002.16 1003.16 1004.19 1005.22 1006.23 1007.19 1008.11 1008.97 1009.77 1010.51 1011.19 1011.81 1012.37 1012.85
1007.68 1007.16 1006.68 1006.25 1005.90 1005.60 1005.34 1005.11 1004.87 1004.61 1004.31 1003.94 1003.50 1003.00 1002.43 1001.82 1001.17 1000.51 999.88 999.29 998.77 998.37 998.09 997.98 998.03 998.27 998.68 999.25 999.96 1000.80 1001.72 1002.71 1003.72 1004.74 1005.74 1006.71 1007.63 1008.50 1009.30 1010.04 1010.71 1011.30 1011.83 1012.27
Thickness
5758 5743 5734 5739 5743 5744 5741 5736 5732 5742 5754 5747 5739 5738 5743 5747 5745 5741 5739 5736 5733 5732 5731 5729 5728 5726 5724 5721 5720 5719 5718 5717 5716 5714 5713 5711 5710 5710 5709 5709 5710 5710 5709 5709
5740 5735 5748 5752 5749 5744 5739 5732 5731 5741 5751 5745 5736 5736 5744 5745 5745 5744 5740 5736 5733 5729 5727 5725 5723 5722 5721 5719 5718 5717 5716 5716 5715 5714 5712 5711 5710 5707 5706 5706 5707 5707 5706 5706
5735 5744 5756 5750 5743 5738 5735 5731 5733 5734 5741 5740 5733 5728 5735 5742 5744 5743 5741 5738 5735 5731 5726 5724 5722 5720 5719 5718 5718 5718 5715 5715 5714 5712 5710 5709 5707 5705 5702 5702 5703 5704 5704 5704
5737 5749 5751 5745 5741 5740 5728 5744 5742 5737 5725 5715 5724 5705 5726 5733 5735 5738 5739 5737 5734 5732 5728 5724 5722 5720 5719 5719 5719 5717 5715 5714 5712 5712 5710 5708 5705 5702 5701 5701 5701 5701 5701 5701
5735 5747 5745 5740 5745 5747 5740 5748 5741 5734 5721 5711 5714 5704 5715 5727 5727 5735 5740 5739 5737 5734 5730 5726 5724 5722 5721 5720 5718 5716 5714 5713 5712 5711 5709 5707 5704 5702 5700 5699 5698 5698 5698 5698
5743 5753 5752 5750 5755 5754 5748 5738 5726 5713 5706 5696 5709 5700 5707 5720 5733 5740 5743 5743 5739 5735 5732 5727 5725 5723 5721 5719 5717 5715 5713 5711 5710 5709 5708 5706 5704 5701 5699 5697 5696 5695 5695 5696
5731 5742 5752 5756 5743 5744 5738 5713 5691 5690 5681 5688 5708 5703 5712 5740 5747 5748 5747 5745 5742 5738 5732 5728 5724 5722 5720 5718 5717 5715 5713 5711 5710 5708 5707 5706 5704 5702 5700 5697 5696 5694 5694 5694
5711 5714 5740 5748 5742 5731 5728 5716 5691 5682 5680 5689 5703 5702 5726 5750 5754 5755 5753 5749 5744 5739 5735 5731 5728 5725 5722 5720 5717 5715 5712 5710 5709 5708 5707 5705 5703 5701 5700 5698 5696 5695 5695 5694
5706 5711 5740 5749 5749 5740 5722 5713 5716 5695 5690 5686 5695 5710 5732 5749 5750 5751 5750 5747 5744 5742 5738 5734 5730 5727 5724 5721 5718 5716 5713 5711 5709 5708 5706 5704 5702 5701 5700 5698 5696 5695 5694 5694
5718 5710 5727 5739 5743 5737 5731 5717 5701 5690 5680 5679 5695 5705 5716 5738 5742 5746 5746 5746 5746 5744 5741 5737 5733 5729 5727 5724 5720 5717 5715 5712 5710 5708 5706 5704 5702 5701 5699 5698 5696 5695 5694 5693
5719 5706 5712 5722 5722 5720 5718 5712 5701 5688 5688 5680 5680 5701 5739 5743 5747 5747 5748 5750 5748 5746 5744 5740 5737 5733 5729 5725 5721 5718 5715 5712 5710 5708 5706 5704 5702 5700 5699 5697 5696 5695 5693 5692
5710 5697 5693 5707 5723 5729 5723 5714 5701 5691 5687 5684 5682 5702 5750 5750 5752 5751 5751 5752 5750 5748 5746 5743 5738 5733 5729 5726 5722 5719 5717 5714 5711 5709 5706 5704 5701 5699 5698 5697 5696 5694 5693 5691
5707 5691 5681 5689 5701 5712 5712 5712 5707 5697 5687 5679 5681 5707 5747 5748 5750 5752 5752 5751 5750 5748 5744 5741 5737 5733 5730 5728 5725 5721 5718 5716 5712 5709 5706 5703 5701 5699 5698 5697 5695 5694 5692 5691
5708 5688 5682 5679 5687 5698 5702 5707 5705 5696 5684 5683 5693 5712 5735 5742 5745 5748 5750 5751 5750 5748 5744 5740 5737 5735 5733 5730 5727 5724 5720 5718 5714 5710 5706 5703 5701 5700 5698 5696 5695 5693 5692 5690
5699 5683 5686 5690 5698 5699 5701 5705 5705 5701 5699 5696 5707 5714 5732 5742 5747 5751 5752 5750 5748 5746 5744 5742 5740 5737 5734 5731 5728 5725 5722 5719 5716 5711 5708 5705 5703 5701 5698 5696 5694 5692 5691 5690
5685 5680 5681 5684 5695 5695 5697 5705 5706 5706 5708 5707 5713 5720 5741 5746 5750 5750 5751 5750 5748 5747 5748 5746 5744 5741 5738 5735 5732 5728 5724 5721 5717 5713 5710 5707 5704 5701 5699 5696 5694 5691 5689 5688
5672 5671 5668 5669 5683 5687 5683 5701 5705 5706 5711 5711 5709 5723 5737 5740 5744 5747 5750 5751 5751 5752 5752 5750 5748 5747 5744 5741 5737 5732 5728 5723 5718 5715 5712 5708 5705 5702 5699 5697 5693 5691 5688 5686
5666 5662 5658 5660 5669 5663 5690 5708 5711 5708 5713 5717 5721 5728 5734 5740 5745 5750 5752 5752 5752 5755 5755 5754 5753 5750 5748 5745 5740 5735 5730 5724 5720 5716 5713 5710 5706 5703 5700 5696 5693 5690 5687 5685
5665 5659 5653 5651 5655 5669 5689 5701 5703 5701 5704 5717 5719 5726 5731 5738 5740 5744 5751 5753 5754 5757 5759 5759 5759 5755 5750 5746 5742 5735 5730 5725 5721 5718 5715 5713 5709 5704 5700 5696 5692 5689 5686 5683
5658 5658 5652 5649 5653 5658 5681 5699 5706 5701 5695 5715 5718 5721 5725 5730 5724 5734 5750 5752 5753 5756 5758 5758 5759 5755 5750 5746 5742 5735 5730 5725 5722 5721 5719 5715 5711 5706 5701 5698 5693 5689 5686 5683
5648 5647 5647 5647 5650 5664 5685 5695 5699 5682 5692 5709 5714 5718 5721 5723 5728 5738 5746 5749 5752 5754 5755 5756 5756 5754 5751 5747 5741 5735 5731 5728 5728 5724 5720 5715 5710 5706 5703 5698 5693 5688 5684 5680
5642 5641 5642 5642 5644 5657 5684 5687 5684 5688 5699 5705 5710 5715 5717 5723 5730 5736 5741 5745 5748 5750 5752 5753 5752 5751 5749 5746 5740 5736 5733 5733 5728 5722 5717 5712 5708 5704 5701 5695 5690 5686 5682 5677
5640 5644 5645 5647 5654 5669 5677 5680 5687 5691 5694 5702 5707 5712 5716 5720 5725 5731 5735 5739 5742 5745 5748 5750 5749 5747 5745 5743 5741 5736 5734 5730 5724 5718 5714 5710 5706 5702 5699 5693 5688 5682 5679 5675
5642 5646 5644 5647 5657 5665 5672 5678 5684 5689 5692 5699 5705 5709 5715 5718 5722 5726 5730 5734 5737 5740 5743 5745 5744 5741 5739 5739 5739 5736 5732 5727 5721 5715 5710 5706 5702 5698 5695 5691 5687 5682 5678 5674
5639 5641 5641 5644 5654 5661 5669 5672 5678 5684 5690 5696 5702 5707 5711 5714 5718 5722 5725 5728 5731 5734 5737 5739 5738 5737 5736 5735 5733 5731 5728 5724 5717 5711 5706 5701 5698 5695 5691 5688 5685 5682 5679 5676
5633 5635 5636 5641 5650 5652 5659 5667 5674 5678 5683 5689 5695 5700 5705 5709 5712 5716 5719 5722 5725 5727 5729 5730 5730 5729 5728 5727 5725 5724 5722 5719 5713 5707 5702 5698 5694 5691 5687 5683 5679 5677 5675 5672